Flag for U.S.A. Weather past 2 weeks in Cape Coral, Florida, U.S.A.

Now
90 °F

Scattered clouds.


Feels Like: 100 °F
Forecast: 77 / 90 °F
Wind: 8 mph from West

Location: Page Field

Current Time: Jul 28, 2014 at 5:29:03 PM

Latest Report: Jul 28, 2014 at 4:53 PM


Visibility: 10 mi

Pressure: 30.03 "Hg

Humidity: 61%

Dew point: 75 °F

Location of Cape CoralLocation

Historic Weather in Cape Coral — Graph

°F

Cape Coral temperature yesterday

Maximum temperature yesterday: 90 °F (at 12:53 PM)
Minimum temperature yesterday: 76 °F (at 5:53 AM)
Average temperature yesterday: 84 °F

Past Weeks' High & Low Weather Summary

 TemperatureHumidityPressure
High94 °F (Jul 20, 2:53 PM)97% (Jul 17, 12:53 AM)30.12 "Hg (Jul 17, 12:53 AM)
Low74 °F (Jul 15, 5:53 AM)41% (Jul 20, 2:53 PM)29.95 "Hg (Jul 16, 3:53 AM)
Average82 °F78%30.04 "Hg
* Reported Jul 13 3:53 PM — Jul 28 3:53 PM, Cape Coral, Weather by CustomWeather, © 2014

Note: Actual official high and low records may vary slightly from our data, if they occured in-between our weather recording intervals... More about our weather records

Advertising

Cape Coral weather history for previous 24 hours

 ConditionsComfort  
Time TempWeatherWind HumidityBarometerVisibility
3:53 PM
Jul 28
89 °FSunny.13 mph68%30.04 "Hg10 mi
2:53 PM87 °FPassing clouds.10 mph69%30.06 "Hg10 mi
1:53 PM85 °FPartly sunny.10 mph77%30.07 "Hg10 mi
12:53 PM82 °FThunderstorms. Broken clouds.6 mph85%30.09 "Hg10 mi
12:03 PM81 °FThundershowers. Broken clouds.No wind85%30.10 "Hg10 mi
11:53 AM80 °FBroken clouds.7 mph90%30.10 "Hg10 mi
10:53 AM84 °FThundershowers. Scattered clouds.5 mph80%30.09 "Hg10 mi
10:03 AM78 °FThundershowers. Mostly cloudy.6 mph87%30.09 "Hg6 mi
9:58 AM78 °FStrong thunderstorms. Fog.15 mph87%30.09 "Hg1 mi
8:53 AM86 °FSunny.6 mph72%30.08 "Hg10 mi
7:53 AM81 °FSunny.No wind88%30.08 "Hg10 mi
6:53 AM78 °FClear.No wind93%30.07 "Hg10 mi
5:53 AM79 °FClear.No wind90%30.05 "Hg10 mi
4:53 AM79 °FClear.No wind90%30.04 "Hg10 mi
3:53 AM78 °FClear.No wind93%30.05 "Hg10 mi
2:53 AM80 °FClear.No wind87%30.06 "Hg10 mi
1:53 AM81 °FClear.5 mph85%30.08 "Hg10 mi
12:53 AM82 °FClear.No wind82%30.08 "Hg10 mi
11:53 PM
Jul 27
83 °FClear.No wind79%30.08 "Hg10 mi
10:53 PM84 °FClear.5 mph77%30.08 "Hg10 mi
9:53 PM84 °FClear.5 mph74%30.08 "Hg10 mi
8:53 PM85 °FPassing clouds.6 mph72%30.07 "Hg10 mi
7:53 PM86 °FScattered clouds.7 mph70%30.07 "Hg10 mi
6:53 PM88 °FPassing clouds.8 mph65%30.06 "Hg10 mi
6:04 PM88 °FSunny.6 mph65%30.07 "Hg10 mi
5:53 PM88 °FThundershowers. Scattered clouds.10 mph63%30.07 "Hg10 mi
Weather by CustomWeather, © 2014

See weather overviewHow to use our weather pages